Flag for U.S.A. Weather past 2 weeks in Rochester, New York, U.S.A.

Now
61 °F

Low clouds.


Feels Like: 61 °F
Forecast: 59 / 69 °F
Wind: 5 mph from North

Location: Greater Rochester International Airport

Current Time: Oct 1, 2014 at 2:59:19 AM

Latest Report: Oct 1, 2014 at 1:54 AM


Visibility: 7 mi

Pressure: 30.01 "Hg

Humidity: 90%

Dew point: 58 °F

Location of RochesterLocation

Historic Weather in Rochester — Graph

°F

Rochester temperature yesterday

Maximum temperature yesterday: 74 °F (at 12:54 PM)
Minimum temperature yesterday: 55 °F (at 5:54 AM)
Average temperature yesterday: 62 °F

Past Weeks' High & Low Weather Summary

 TemperatureHumidityPressure
High80 °F (Sep 28, 1:54 PM)97% (Sep 16, 3:54 AM)30.55 "Hg (Sep 16, 3:54 AM)
Low41 °F (Sep 19, 6:54 AM)38% (Sep 17, 4:54 PM)29.57 "Hg (Sep 21, 3:54 PM)
Average60 °F74%30.13 "Hg
* Reported Sep 16 1:04 AM — Oct 1 1:54 AM, Rochester, Weather by CustomWeather, © 2014

Note: Actual official high and low records may vary slightly from our data, if they occured in-between our weather recording intervals... More about our weather records

Advertising

Rochester weather history for previous 24 hours

 ConditionsComfort  
Time TempWeatherWind HumidityBarometerVisibility
1:54 AM
Oct 1
61 °FLow clouds.5 mph90%30.01 "Hg7 mi
12:54 AM61 °FLow clouds.6 mph90%30.00 "Hg7 mi
11:54 PM
Sep 30
61 °FMostly cloudy.9 mph90%29.99 "Hg8 mi
10:59 PM62 °FOvercast.8 mph90%29.98 "Hg8 mi
9:54 PM63 °FMostly cloudy.9 mph87%29.97 "Hg8 mi
8:54 PM63 °FOvercast.7 mph87%29.98 "Hg8 mi
7:54 PM62 °FPartly cloudy.9 mph86%29.96 "Hg8 mi
6:54 PM63 °FPartly sunny.8 mph87%29.93 "Hg7 mi
5:58 PM63 °FBroken clouds.9 mph84%29.92 "Hg7 mi
4:54 PM64 °FMostly cloudy.16 mph84%29.91 "Hg9 mi
3:54 PM67 °FScattered clouds.12 mph76%29.90 "Hg10 mi
2:54 PM69 °FPassing clouds.14 mph70%29.89 "Hg10 mi
1:54 PM71 °FScattered clouds.14 mph66%29.90 "Hg10 mi
12:54 PM74 °FBroken clouds.10 mph60%29.90 "Hg10 mi
11:54 AM72 °FPassing clouds.No wind53%29.90 "Hg10 mi
10:54 AM68 °FScattered clouds.No wind65%29.91 "Hg10 mi
9:54 AM63 °FScattered clouds.6 mph75%29.91 "Hg10 mi
8:54 AM57 °FPartly sunny.6 mph93%29.91 "Hg8 mi
7:54 AM56 °FFog.No wind90%29.92 "Hg6 mi
6:54 AM55 °FFog.3 mph93%29.90 "Hg6 mi
5:54 AM55 °FFog.3 mph93%29.89 "Hg5 mi
4:54 AM56 °FFog.No wind93%29.88 "Hg5 mi
3:54 AM57 °FFog.No wind93%29.88 "Hg6 mi
2:54 AM57 °FPassing clouds.3 mph93%29.88 "Hg8 mi
Weather by CustomWeather, © 2014

See weather overviewHow to use our weather pages